Flag for Finland Weather past 2 weeks in Rovaniemi, Finland

Now
70 °F

Sunny.


Feels Like: 70 °F
Forecast: 61 / 80 °F
Wind: 2 mph from North

Location: Rovaniemi Airport

Current Time: Jul 23, 2014 at 11:43:47 PM

Latest Report: Jul 23, 2014 at 11:20 PM


Visibility: 10 mi

Pressure: 30.21 "Hg

Humidity: 57%

Dew point: 54 °F

Location of RovaniemiLocation

Historic Weather in Rovaniemi — Graph

°F

Rovaniemi temperature yesterday

Maximum temperature yesterday: 82 °F (at 1:20 PM)
Minimum temperature yesterday: 63 °F (at 2:50 AM)
Average temperature yesterday: 72 °F

Past Weeks' High & Low Weather Summary

 TemperatureHumidityPressure
High82 °F (Jul 22, 1:20 PM)100% (Jul 16, 9:50 PM)30.33 "Hg (Jul 16, 9:50 PM)
Low52 °F (Jul 10, 3:50 AM)24% (Jul 12, 3:20 PM)29.83 "Hg (Jul 15, 6:20 PM)
Average68 °F63%30.12 "Hg
* Reported Jul 8 10:20 PM — Jul 23 10:20 PM, Rovaniemi, Weather by CustomWeather, © 2014

Note: Actual official high and low records may vary slightly from our data, if they occured in-between our weather recording intervals... More about our weather records

Advertising

Rovaniemi weather history for previous 24 hours

 ConditionsComfort  
Time TempWeatherWind HumidityBarometerVisibility
10:20 PM
Jul 23
72 °FSunny.3 mph57%30.21 "Hg10 mi
9:50 PM72 °FSunny.6 mph57%30.21 "Hg10 mi
9:20 PM75 °FSunny.7 mph50%30.21 "Hg10 mi
8:50 PM75 °FSunny.8 mph47%30.21 "Hg10 mi
8:20 PM75 °FSunny.7 mph47%30.21 "Hg10 mi
7:50 PM77 °FSunny.8 mph44%30.21 "Hg10 mi
7:20 PM77 °FSunny.12 mph44%30.18 "Hg10 mi
6:50 PM79 °FPassing clouds.13 mph39%30.18 "HgN/A
6:20 PM79 °FSunny.9 mph32%30.18 "Hg10 mi
5:50 PM79 °FSunny.9 mph32%30.18 "Hg10 mi
5:20 PM79 °FSunny.7 mph34%30.21 "Hg10 mi
4:50 PM79 °FSunny.7 mph34%30.21 "Hg10 mi
4:20 PM79 °FSunny.6 mph37%30.21 "Hg10 mi
3:20 PM79 °FSunny.7 mph37%30.21 "Hg10 mi
2:50 PM79 °FSunny.7 mph34%30.21 "Hg10 mi
2:20 PM79 °FSunny.9 mph32%30.21 "Hg10 mi
1:50 PM77 °FSunny.12 mph36%30.21 "Hg10 mi
12:50 PM77 °FSunny.9 mph42%30.21 "Hg10 mi
12:20 PM75 °FSunny.8 mph44%30.21 "Hg10 mi
8:20 AM70 °FSunny.10 mph64%30.21 "Hg10 mi
7:50 AM68 °FSunny.14 mph69%30.21 "Hg10 mi
7:20 AM68 °FSunny.13 mph64%30.18 "Hg10 mi
6:50 AM66 °FSunny.15 mph73%30.18 "Hg10 mi
6:20 AM66 °FSunny.14 mph73%30.18 "Hg10 mi
5:50 AM64 °FSunny.10 mph78%30.18 "Hg10 mi
5:20 AM63 °FSunny.10 mph83%30.18 "Hg10 mi
4:50 AM64 °FSunny.8 mph88%30.18 "Hg10 mi
4:20 AM66 °FSunny.7 mph83%30.18 "Hg10 mi
3:50 AM66 °FClear.5 mph83%30.18 "Hg10 mi
2:50 AM66 °FClear.5 mph83%30.18 "Hg10 mi
Weather by CustomWeather, © 2014

See weather overviewHow to use our weather pages